,,,PA_Meas_PMT16A,,PR_Meas_QMR101_102,,RH_Meas_QMH101,,SR_Meas_QMS101,,TA_Meas_QMH101,,GenWind,,GenWind,
date,time,status,PA,status,PR,status,RH,status,SR,status,TA,status,DirAvg,status,SpdAvg,
2012-04-16, 00:00:04,VALID,1009.24,VALID,0,VALID,104,VALID,0,VALID,24.1032,VALID,174,VALID,0,
2012-04-16, 00:01:04,VALID,1009.27,VALID,0,VALID,104,VALID,0.112112,VALID,24.0837,VALID,174,VALID,0.438281,
2012-04-16, 00:02:04,VALID,1009.26,VALID,0,VALID,104,VALID,0,VALID,24.1032,VALID,118,VALID,0.633594,
2012-04-16, 00:03:04,VALID,1009.25,VALID,0,VALID,104,VALID,0.112112,VALID,24.0837,VALID,118,VALID,0.543359,
2012-04-16, 00:04:04,VALID,1009.25,VALID,0,VALID,104,VALID,0,VALID,24.0643,VALID,118,VALID,0.214062,
2012-04-16, 00:05:04,VALID,1009.22,VALID,0,VALID,104,VALID,0.112112,VALID,24.0643,VALID,118,VALID,0.152734,
2012-04-16, 00:06:04,VALID,1009.27,VALID,0,VALID,104,VALID,0,VALID,24.0643,VALID,118,VALID,0.294922,
2012-04-16, 00:07:04,VALID,1009.25,VALID,0,VALID,104,VALID,0,VALID,24.0429,VALID,118,VALID,0.203906,
2012-04-16, 00:08:04,VALID,1009.24,VALID,0,VALID,104,VALID,0,VALID,24.0643,VALID,118,VALID,0.349219,
2012-04-16, 00:09:04,VALID,1009.26,VALID,0,VALID,104,VALID,0,VALID,24.0448,VALID,118,VALID,0.291016,
2012-04-16, 00:10:04,VALID,1009.29,VALID,0,VALID,104,VALID,0,VALID,24.0643,VALID,118,VALID,0.2,
2012-04-16, 00:11:04,VALID,1009.27,VALID,0,VALID,104,VALID,0,VALID,24.0661,VALID,118,VALID,0.228516,
2012-04-16, 00:12:04,VALID,1009.29,VALID,0,VALID,104,VALID,0,VALID,24.0448,VALID,118,VALID,0.389844,
2012-04-16, 00:13:04,VALID,1009.31,VALID,0,VALID,104,VALID,0,VALID,24.0448,VALID,118,VALID,0.355469,
2012-04-16, 00:14:04,VALID,1009.28,VALID,0,VALID,104,VALID,0,VALID,24.0235,VALID,118,VALID,0.391406,
2012-04-16, 00:15:04,VALID,1009.28,VALID,0,VALID,104,VALID,0,VALID,24.0448,VALID,111,VALID,0.599219,
2012-04-16, 00:16:04,VALID,1009.29,VALID,0,VALID,104,VALID,0,VALID,24.0643,VALID,119,VALID,0.813281,
2012-04-16, 00:17:04,VALID,1009.28,VALID,0,VALID,104,VALID,0,VALID,24.0643,VALID,122,VALID,0.930078,
2012-04-16, 00:18:04,VALID,1009.26,VALID,0,VALID,104,VALID,0,VALID,24.0448,VALID,143,VALID,0.496484,
2012-04-16, 00:19:04,VALID,1009.24,VALID,0,VALID,104,VALID,0,VALID,24.0448,VALID,123,VALID,0.666406,
2012-04-16, 00:20:04,VALID,1009.22,VALID,0,VALID,104,VALID,0.112112,VALID,24.0429,VALID,120,VALID,0.766797,
2012-04-16, 00:21:04,VALID,1009.22,VALID,0,VALID,104,VALID,0,VALID,24.0448,VALID,119,VALID,0.473437,
2012-04-16, 00:22:04,VALID,1009.18,VALID,0,VALID,104,VALID,0.112112,VALID,24.0429,VALID,118,VALID,0.545703,
2012-04-16, 00:23:04,VALID,1009.18,VALID,0,VALID,104,VALID,0.112112,VALID,24.0448,VALID,119,VALID,0.701172,
2012-04-16, 00:24:04,VALID,1009.16,VALID,0,VALID,104,VALID,0,VALID,24.0448,VALID,119,VALID,0.4875,
2012-04-16, 00:25:04,VALID,1009.17,VALID,0,VALID,104,VALID,0.112112,VALID,24.0448,VALID,110,VALID,0.471875,
2012-04-16, 00:26:04,VALID,1009.12,VALID,0,VALID,104,VALID,0,VALID,24.0253,VALID,110,VALID,0.392578,
2012-04-16, 00:27:04,VALID,1009.09,VALID,0,VALID,104,VALID,0.112112,VALID,24.0448,VALID,110,VALID,0.469922,
2012-04-16, 00:28:04,VALID,1009.09,VALID,0,VALID,104,VALID,0,VALID,24.0448,VALID,110,VALID,0.634375,
2012-04-16, 00:29:04,VALID,1009.06,VALID,0,VALID,104,VALID,0.112112,VALID,24.0235,VALID,112,VALID,0.8125,
2012-04-16, 00:30:04,VALID,1009.05,VALID,0,VALID,104,VALID,0.112112,VALID,24.0643,VALID,77,VALID,0.783594,
2012-04-16, 00:31:04,VALID,1009.05,VALID,0,VALID,104,VALID,0.112112,VALID,24.0448,VALID,74,VALID,0.332031,
2012-04-16, 00:32:04,VALID,1009.05,VALID,0,VALID,104,VALID,0,VALID,24.0429,VALID,69,VALID,0.524219,
2012-04-16, 00:33:04,VALID,1009.05,VALID,0,VALID,104,VALID,0,VALID,24.0448,VALID,69,VALID,0.360547,
2012-04-16, 00:34:04,VALID,1009.02,VALID,0,VALID,104,VALID,0.112112,VALID,24.0235,VALID,119,VALID,0.686328,
2012-04-16, 00:35:04,VALID,1009.03,VALID,0,VALID,104,VALID,0,VALID,24.0253,VALID,113,VALID,0.560938,
2012-04-16, 00:36:04,VALID,1009.02,VALID,0,VALID,104,VALID,0,VALID,24.0253,VALID,109,VALID,0.860547,
2012-04-16, 00:37:04,VALID,1009,VALID,0,VALID,104,VALID,0.112112,VALID,24.0235,VALID,117,VALID,0.919531,
2012-04-16, 00:38:04,VALID,1009,VALID,0,VALID,104,VALID,0,VALID,24.0253,VALID,116,VALID,0.781641,
2012-04-16, 00:39:04,VALID,1009.01,VALID,0,VALID,104,VALID,0.112112,VALID,24.0253,VALID,120,VALID,0.840234,
2012-04-16, 00:40:04,VALID,1008.98,VALID,0,VALID,104,VALID,0,VALID,24.0058,VALID,134,VALID,0.705859,
2012-04-16, 00:41:04,VALID,1008.96,VALID,0,VALID,104,VALID,0,VALID,24.0058,VALID,122,VALID,0.717578,
2012-04-16, 00:42:04,VALID,1008.96,VALID,0,VALID,104,VALID,0,VALID,23.9863,VALID,121,VALID,0.853906,
2012-04-16, 00:43:04,VALID,1008.94,VALID,0,VALID,104,VALID,0,VALID,23.9863,VALID,121,VALID,1.03437,
2012-04-16, 00:44:04,VALID,1008.92,VALID,0,VALID,104,VALID,0,VALID,24.0076,VALID,116,VALID,1.07383,
2012-04-16, 00:45:04,VALID,1008.94,VALID,0,VALID,104,VALID,0,VALID,23.9863,VALID,133,VALID,0.741406,
2012-04-16, 00:46:04,VALID,1008.92,VALID,0,VALID,104,VALID,0,VALID,23.9863,VALID,140,VALID,0.575,
2012-04-16, 00:47:04,VALID,1008.93,VALID,0,VALID,104,VALID,0,VALID,23.9686,VALID,140,VALID,0.371484,
2012-04-16, 00:48:04,VALID,1008.92,VALID,0,VALID,104,VALID,0,VALID,23.9473,VALID,116,VALID,0.744922,
2012-04-16, 00:49:04,VALID,1008.91,VALID,0,VALID,104,VALID,0,VALID,23.9473,VALID,122,VALID,0.833984,
2012-04-16, 00:50:04,VALID,1008.91,VALID,0,VALID,104,VALID,0.112112,VALID,23.9473,VALID,123,VALID,0.597656,
2012-04-16, 00:51:04,VALID,1008.88,VALID,0,VALID,104,VALID,0,VALID,23.9473,VALID,111,VALID,0.955469,
2012-04-16, 00:52:04,VALID,1008.86,VALID,0,VALID,104,VALID,0,VALID,23.9278,VALID,117,VALID,0.371484,
2012-04-16, 00:53:04,VALID,1008.84,VALID,0,VALID,104,VALID,0,VALID,23.9278,VALID,117,VALID,0.502344,
2012-04-16, 00:54:04,VALID,1008.84,VALID,0,VALID,104,VALID,0,VALID,23.9084,VALID,117,VALID,0.843359,
2012-04-16, 00:55:04,VALID,1008.81,VALID,0,VALID,104,VALID,0,VALID,23.9065,VALID,108,VALID,0.520312,
2012-04-16, 00:56:04,VALID,1008.79,VALID,0,VALID,104,VALID,0.112112,VALID,23.9084,VALID,108,VALID,0.342187,
2012-04-16, 00:57:04,VALID,1008.77,VALID,0,VALID,104,VALID,0.112112,VALID,23.9084,VALID,114,VALID,0.794141,
2012-04-16, 00:58:04,VALID,1008.76,VALID,0,VALID,104,VALID,0,VALID,23.8871,VALID,109,VALID,0.503125,
2012-04-16, 00:59:04,VALID,1008.71,VALID,0,VALID,104,VALID,0,VALID,23.8694,VALID,109,VALID,0.515625,
2012-04-16, 01:00:04,VALID,1008.69,VALID,0,VALID,104,VALID,0,VALID,23.8694,VALID,111,VALID,0.494531,
2012-04-16, 01:01:04,VALID,1008.66,VALID,0,VALID,104,VALID,0,VALID,23.8694,VALID,109,VALID,0.682813,
2012-04-16, 01:02:04,VALID,1008.67,VALID,0,VALID,104,VALID,0,VALID,23.8889,VALID,101,VALID,0.768359,
2012-04-16, 01:03:04,VALID,1008.63,VALID,0,VALID,104,VALID,0,VALID,23.8889,VALID,117,VALID,0.801562,
2012-04-16, 01:04:04,VALID,1008.58,VALID,0,VALID,104,VALID,0,VALID,23.8889,VALID,101,VALID,0.516797,
2012-04-16, 01:05:04,VALID,1008.54,VALID,0,VALID,104,VALID,0,VALID,23.8889,VALID,115,VALID,0.9125,
2012-04-16, 01:06:04,VALID,1008.52,VALID,0,VALID,104,VALID,0,VALID,23.9084,VALID,126,VALID,0.746484,
2012-04-16, 01:07:04,VALID,1008.47,VALID,0,VALID,104,VALID,0,VALID,23.9084,VALID,123,VALID,0.576953,
2012-04-16, 01:08:04,VALID,1008.47,VALID,0,VALID,104,VALID,0,VALID,23.8871,VALID,106,VALID,0.463672,
2012-04-16, 01:09:04,VALID,1008.42,VALID,0,VALID,104,VALID,0,VALID,23.9065,VALID,121,VALID,0.801562,
2012-04-16, 01:10:04,VALID,1008.41,VALID,0,VALID,104,VALID,0,VALID,23.9084,VALID,105,VALID,0.498437,
2012-04-16, 01:11:04,VALID,1008.39,VALID,0,VALID,104,VALID,0.112112,VALID,23.8871,VALID,105,VALID,0.540234,
2012-04-16, 01:12:04,VALID,1008.38,VALID,0,VALID,104,VALID,0,VALID,23.8889,VALID,108,VALID,0.491016,
2012-04-16, 01:13:04,VALID,1008.34,VALID,0,VALID,104,VALID,0,VALID,23.9084,VALID,108,VALID,0.351172,
2012-04-16, 01:14:04,VALID,1008.32,VALID,0,VALID,104,VALID,0,VALID,23.9084,VALID,110,VALID,0.549219,
2012-04-16, 01:15:04,VALID,1008.29,VALID,0,VALID,104,VALID,0,VALID,23.8889,VALID,110,VALID,0.449609,
2012-04-16, 01:16:04,VALID,1008.26,VALID,0,VALID,104,VALID,0,VALID,23.9084,VALID,118,VALID,0.753906,
2012-04-16, 01:17:04,VALID,1008.24,VALID,0,VALID,104,VALID,0,VALID,23.8871,VALID,120,VALID,0.326953,
2012-04-16, 01:18:04,VALID,1008.23,VALID,0,VALID,104,VALID,0,VALID,23.9084,VALID,104,VALID,0.885547,
2012-04-16, 01:19:04,VALID,1008.19,VALID,0,VALID,104,VALID,0.112112,VALID,23.9065,VALID,99,VALID,0.486719,
2012-04-16, 01:20:04,VALID,1008.19,VALID,0,VALID,104,VALID,0,VALID,23.9084,VALID,109,VALID,0.971875,
2012-04-16, 01:21:04,VALID,1008.17,VALID,0,VALID,104,VALID,0,VALID,23.9084,VALID,113,VALID,0.851953,
2012-04-16, 01:22:04,VALID,1008.16,VALID,0,VALID,104,VALID,0,VALID,23.9278,VALID,113,VALID,0.399609,
2012-04-16, 01:23:04,VALID,1008.13,VALID,0,VALID,104,VALID,0,VALID,23.9065,VALID,113,VALID,0.707031,
2012-04-16, 01:24:04,VALID,1008.12,VALID,0,VALID,104,VALID,0,VALID,23.9278,VALID,122,VALID,0.68125,
2012-04-16, 01:25:04,VALID,1008.1,VALID,0,VALID,104,VALID,0,VALID,23.9065,VALID,122,VALID,0.746484,
2012-04-16, 01:26:04,VALID,1008.08,VALID,0,VALID,104,VALID,0,VALID,23.9278,VALID,122,VALID,0.746484,
2012-04-16, 01:27:04,VALID,1008.07,VALID,0,VALID,104,VALID,0,VALID,23.9065,VALID,121,VALID,0.490234,
2012-04-16, 01:28:04,VALID,1008.06,VALID,0,VALID,104,VALID,0,VALID,23.9278,VALID,121,VALID,0.603906,
2012-04-16, 01:29:04,VALID,1008.03,VALID,0,VALID,104,VALID,0,VALID,23.9084,VALID,119,VALID,0.601172,
2012-04-16, 01:30:04,VALID,1008.06,VALID,0,VALID,104,VALID,0,VALID,23.9278,VALID,119,VALID,0.253906,
2012-04-16, 01:31:04,VALID,1008.06,VALID,0,VALID,104,VALID,0,VALID,23.9278,VALID,119,VALID,0.0410156,
2012-04-16, 01:32:04,VALID,1008.02,VALID,0,VALID,104,VALID,0,VALID,23.9084,VALID,119,VALID,0.192188,
2012-04-16, 01:33:04,VALID,1008.05,VALID,0,VALID,104,VALID,0,VALID,23.9084,VALID,119,VALID,0.239063,
2012-04-16, 01:34:04,VALID,1008.02,VALID,0,VALID,104,VALID,0.112112,VALID,23.9084,VALID,119,VALID,0,
2012-04-16, 01:35:04,VALID,1008.03,VALID,0,VALID,104,VALID,0.112112,VALID,23.9084,VALID,119,VALID,0,
2012-04-16, 01:36:04,VALID,1008.02,VALID,0,VALID,104,VALID,0,VALID,23.9084,VALID,119,VALID,0.00195313,
2012-04-16, 01:37:04,VALID,1008.01,VALID,0,VALID,104,VALID,0,VALID,23.8889,VALID,119,VALID,0.171094,
2012-04-16, 01:38:04,VALID,1008.01,VALID,0,VALID,104,VALID,0,VALID,23.9084,VALID,125,VALID,0.733984,
2012-04-16, 01:39:04,VALID,1007.99,VALID,0,VALID,104,VALID,0.112112,VALID,23.9278,VALID,125,VALID,0.241016,
2012-04-16, 01:40:04,VALID,1007.99,VALID,0,VALID,104,VALID,0,VALID,23.9084,VALID,125,VALID,0.185937,
2012-04-16, 01:41:04,VALID,1007.98,VALID,0,VALID,104,VALID,0,VALID,23.9084,VALID,125,VALID,0.529297,
2012-04-16, 01:42:04,VALID,1007.95,VALID,0,VALID,104,VALID,0,VALID,23.9084,VALID,125,VALID,0.422266,
2012-04-16, 01:43:04,VALID,1007.96,VALID,0,VALID,104,VALID,0,VALID,23.8889,VALID,125,VALID,0.272266,
2012-04-16, 01:44:04,VALID,1007.96,VALID,0,VALID,104,VALID,0,VALID,23.8889,VALID,125,VALID,0,
2012-04-16, 01:45:04,VALID,1007.98,VALID,0,VALID,104,VALID,0,VALID,23.8889,VALID,125,VALID,0.165625,
2012-04-16, 01:46:04,VALID,1007.98,VALID,0,VALID,104,VALID,0,VALID,23.8694,VALID,125,VALID,0.00195313,
2012-04-16, 01:47:04,VALID,1007.98,VALID,0,VALID,104,VALID,0,VALID,23.8481,VALID,125,VALID,0,
2012-04-16, 01:48:04,VALID,1007.98,VALID,0,VALID,104,VALID,0.112112,VALID,23.8499,VALID,125,VALID,0.0367187,
2012-04-16, 01:49:04,VALID,1008.01,VALID,0,VALID,104,VALID,0.112112,VALID,23.8481,VALID,125,VALID,0.416406,
2012-04-16, 01:50:04,VALID,1008.01,VALID,0,VALID,104,VALID,0,VALID,23.8481,VALID,125,VALID,0.166797,
2012-04-16, 01:51:04,VALID,1008.03,VALID,0,VALID,104,VALID,0.112112,VALID,23.8499,VALID,125,VALID,0.23125,
2012-04-16, 01:52:04,VALID,1008.04,VALID,0,VALID,104,VALID,0,VALID,23.8499,VALID,125,VALID,0.0832031,
2012-04-16, 01:53:04,VALID,1008.05,VALID,0,VALID,104,VALID,0,VALID,23.8109,VALID,125,VALID,0,
2012-04-16, 01:54:04,VALID,1008.07,VALID,0,VALID,104,VALID,0.112112,VALID,23.772,VALID,125,VALID,0.0929687,
2012-04-16, 01:55:04,VALID,1008.09,VALID,0,VALID,104,VALID,0,VALID,23.772,VALID,125,VALID,0.262891,
2012-04-16, 01:56:04,VALID,1008.06,VALID,0,VALID,104,VALID,0,VALID,23.733,VALID,125,VALID,0.14375,
2012-04-16, 01:57:04,VALID,1008.1,VALID,0,VALID,104,VALID,0,VALID,23.7525,VALID,125,VALID,0.0988281,
2012-04-16, 01:58:04,VALID,1008.08,VALID,0,VALID,104,VALID,0,VALID,23.7153,VALID,125,VALID,0.0640625,
2012-04-16, 01:59:04,VALID,1008.09,VALID,0,VALID,104,VALID,0,VALID,23.694,VALID,125,VALID,0.263672,
2012-04-16, 02:00:04,VALID,1008.08,VALID,0,VALID,104,VALID,0,VALID,23.7135,VALID,125,VALID,0.0675781,
2012-04-16, 02:01:04,VALID,1008.08,VALID,0,VALID,104,VALID,0.112112,VALID,23.6745,VALID,125,VALID,0.154687,
2012-04-16, 02:02:04,VALID,1008.07,VALID,0,VALID,104,VALID,0,VALID,23.6745,VALID,125,VALID,0.257422,
2012-04-16, 02:03:04,VALID,1008.06,VALID,0,VALID,104,VALID,0,VALID,23.655,VALID,125,VALID,0.281641,
2012-04-16, 02:04:04,VALID,1008.08,VALID,0,VALID,104,VALID,0,VALID,23.6161,VALID,125,VALID,0.366797,
2012-04-16, 02:05:04,VALID,1008.09,VALID,0,VALID,104,VALID,0,VALID,23.5966,VALID,125,VALID,0.299219,
2012-04-16, 02:06:04,VALID,1008.05,VALID,0,VALID,104,VALID,0,VALID,23.5576,VALID,125,VALID,0.330078,
2012-04-16, 02:07:04,VALID,1008.05,VALID,0,VALID,104,VALID,0,VALID,23.5169,VALID,125,VALID,0.330469,
2012-04-16, 02:08:04,VALID,1008.07,VALID,0,VALID,104,VALID,0,VALID,23.5186,VALID,125,VALID,0,
2012-04-16, 02:09:04,VALID,1008.07,VALID,0,VALID,104,VALID,0,VALID,23.5186,VALID,125,VALID,0,
2012-04-16, 02:10:04,VALID,1008.06,VALID,0,VALID,104,VALID,0,VALID,23.4779,VALID,125,VALID,0,
2012-04-16, 02:11:04,VALID,1008.08,VALID,0,VALID,104,VALID,0,VALID,23.4797,VALID,125,VALID,0,
2012-04-16, 02:12:04,VALID,1008.07,VALID,0,VALID,104,VALID,0,VALID,23.4797,VALID,125,VALID,0,
2012-04-16, 02:13:04,VALID,1008.06,VALID,0,VALID,104,VALID,0,VALID,23.4797,VALID,125,VALID,0,
2012-04-16, 02:14:04,VALID,1008.07,VALID,0,VALID,104,VALID,0,VALID,23.4992,VALID,125,VALID,0.126172,
2012-04-16, 02:15:04,VALID,1008.08,VALID,0,VALID,104,VALID,0,VALID,23.5186,VALID,125,VALID,0,
2012-04-16, 02:16:04,VALID,1008.07,VALID,0,VALID,104,VALID,0,VALID,23.4992,VALID,125,VALID,0,
2012-04-16, 02:17:04,VALID,1008.04,VALID,0,VALID,104,VALID,0,VALID,23.5204,VALID,125,VALID,0.0972656,
2012-04-16, 02:18:04,VALID,1008.05,VALID,0,VALID,104,VALID,0,VALID,23.4992,VALID,125,VALID,0.216797,
2012-04-16, 02:19:04,VALID,1008.04,VALID,0,VALID,104,VALID,0,VALID,23.4992,VALID,125,VALID,0.251953,
2012-04-16, 02:20:04,VALID,1008.03,VALID,0,VALID,104,VALID,0,VALID,23.4797,VALID,125,VALID,0.276953,
2012-04-16, 02:21:04,VALID,1008,VALID,0,VALID,104,VALID,0.112112,VALID,23.4779,VALID,125,VALID,0.150391,
2012-04-16, 02:22:04,VALID,1008.02,VALID,0,VALID,104,VALID,0.112112,VALID,23.4584,VALID,125,VALID,0.119922,
2012-04-16, 02:23:04,VALID,1007.98,VALID,0,VALID,104,VALID,0,VALID,23.4797,VALID,125,VALID,0,
2012-04-16, 02:24:04,VALID,1008,VALID,0,VALID,104,VALID,0.112112,VALID,23.4797,VALID,125,VALID,0,
2012-04-16, 02:25:04,VALID,1007.99,VALID,0,VALID,104,VALID,0.112112,VALID,23.4779,VALID,125,VALID,0.0339844,
2012-04-16, 02:26:04,VALID,1007.99,VALID,0,VALID,104,VALID,0,VALID,23.4797,VALID,125,VALID,0,
2012-04-16, 02:27:04,VALID,1007.97,VALID,0,VALID,104,VALID,0.112112,VALID,23.4797,VALID,125,VALID,0,
2012-04-16, 02:28:04,VALID,1008,VALID,0,VALID,104,VALID,0,VALID,23.4602,VALID,125,VALID,0,
2012-04-16, 02:29:04,VALID,1007.99,VALID,0,VALID,104,VALID,0,VALID,23.462,VALID,125,VALID,0,
2012-04-16, 02:30:04,VALID,1008.01,VALID,0,VALID,104,VALID,0.112112,VALID,23.4602,VALID,125,VALID,0,
2012-04-16, 02:31:04,VALID,1008,VALID,0,VALID,104,VALID,0.112112,VALID,23.4602,VALID,125,VALID,0.100781,
2012-04-16, 02:32:04,VALID,1007.99,VALID,0,VALID,104,VALID,0,VALID,23.4602,VALID,125,VALID,0.312891,
2012-04-16, 02:33:04,VALID,1007.98,VALID,0,VALID,104,VALID,0.112112,VALID,23.4602,VALID,125,VALID,0.416797,
2012-04-16, 02:34:04,VALID,1007.98,VALID,0,VALID,104,VALID,0.112112,VALID,23.4584,VALID,125,VALID,0.200391,
2012-04-16, 02:35:04,VALID,1007.97,VALID,0,VALID,104,VALID,0,VALID,23.4797,VALID,125,VALID,0.25625,
2012-04-16, 02:36:04,VALID,1007.95,VALID,0,VALID,104,VALID,0,VALID,23.4602,VALID,125,VALID,0,
2012-04-16, 02:37:04,VALID,1007.95,VALID,0,VALID,104,VALID,0,VALID,23.4407,VALID,125,VALID,0.117969,
2012-04-16, 02:38:04,VALID,1007.93,VALID,0,VALID,104,VALID,0.112112,VALID,23.4212,VALID,125,VALID,0,
2012-04-16, 02:39:04,VALID,1007.92,VALID,0,VALID,104,VALID,0,VALID,23.4017,VALID,125,VALID,0,
2012-04-16, 02:40:04,VALID,1007.91,VALID,0,VALID,104,VALID,0,VALID,23.3823,VALID,125,VALID,0.0460938,
2012-04-16, 02:41:04,VALID,1007.89,VALID,0,VALID,104,VALID,0.112112,VALID,23.3238,VALID,125,VALID,0.301562,
2012-04-16, 02:42:04,VALID,1007.89,VALID,0,VALID,104,VALID,0,VALID,23.3043,VALID,125,VALID,0.298828,
2012-04-16, 02:43:04,VALID,1007.84,VALID,0,VALID,104,VALID,0,VALID,23.2654,VALID,125,VALID,0.167578,
2012-04-16, 02:44:04,VALID,1007.86,VALID,0,VALID,104,VALID,0.112112,VALID,23.2459,VALID,125,VALID,0.161328,
2012-04-16, 02:45:04,VALID,1007.85,VALID,0,VALID,104,VALID,0,VALID,23.2459,VALID,125,VALID,0,
2012-04-16, 02:46:04,VALID,1007.81,VALID,0,VALID,104,VALID,0,VALID,23.2264,VALID,125,VALID,0.144531,
2012-04-16, 02:47:04,VALID,1007.81,VALID,0,VALID,104,VALID,0,VALID,23.2264,VALID,125,VALID,0.169141,
2012-04-16, 02:48:04,VALID,1007.82,VALID,0,VALID,104,VALID,0,VALID,23.2069,VALID,125,VALID,0,
2012-04-16, 02:49:04,VALID,1007.79,VALID,0,VALID,104,VALID,0,VALID,23.1874,VALID,125,VALID,0.009375,
2012-04-16, 02:50:04,VALID,1007.8,VALID,0,VALID,104,VALID,0,VALID,23.1679,VALID,125,VALID,0.251953,
2012-04-16, 02:51:04,VALID,1007.8,VALID,0,VALID,104,VALID,0.112112,VALID,23.1679,VALID,125,VALID,0.299219,
2012-04-16, 02:52:04,VALID,1007.84,VALID,0,VALID,104,VALID,0,VALID,23.1467,VALID,125,VALID,0.352734,
2012-04-16, 02:53:04,VALID,1007.83,VALID,0,VALID,104,VALID,0.112112,VALID,23.1485,VALID,125,VALID,0.134375,
2012-04-16, 02:54:04,VALID,1007.87,VALID,0,VALID,104,VALID,0,VALID,23.129,VALID,125,VALID,0.04375,
2012-04-16, 02:55:04,VALID,1007.86,VALID,0,VALID,104,VALID,0,VALID,23.1095,VALID,125,VALID,0.269531,
2012-04-16, 02:56:04,VALID,1007.89,VALID,0,VALID,104,VALID,0,VALID,23.1095,VALID,125,VALID,0.357031,
2012-04-16, 02:57:04,VALID,1007.88,VALID,0,VALID,104,VALID,0,VALID,23.09,VALID,125,VALID,0.304688,
2012-04-16, 02:58:04,VALID,1007.9,VALID,0,VALID,104,VALID,0,VALID,23.0688,VALID,125,VALID,0.167969,
2012-04-16, 02:59:04,VALID,1007.9,VALID,0,VALID,104,VALID,0,VALID,23.09,VALID,125,VALID,0.272266,
2012-04-16, 03:00:04,VALID,1007.93,VALID,0,VALID,104,VALID,0,VALID,23.0705,VALID,125,VALID,0.0617188,
2012-04-16, 03:01:04,VALID,1007.94,VALID,0,VALID,104,VALID,0.112112,VALID,23.09,VALID,125,VALID,0.0894531,
2012-04-16, 03:02:04,VALID,1007.95,VALID,0,VALID,104,VALID,0,VALID,23.0705,VALID,125,VALID,0,
2012-04-16, 03:03:04,VALID,1007.96,VALID,0,VALID,104,VALID,0,VALID,23.0528,VALID,125,VALID,0,
2012-04-16, 03:04:04,VALID,1008,VALID,0,VALID,104,VALID,0,VALID,23.0121,VALID,125,VALID,0,
2012-04-16, 03:05:04,VALID,1008.03,VALID,0,VALID,104,VALID,0,VALID,22.9926,VALID,125,VALID,0,
2012-04-16, 03:06:04,VALID,1008.04,VALID,0,VALID,104,VALID,0,VALID,22.9926,VALID,125,VALID,0,
2012-04-16, 03:07:04,VALID,1008.05,VALID,0,VALID,104,VALID,0,VALID,22.9926,VALID,125,VALID,0,
2012-04-16, 03:08:04,VALID,1008.06,VALID,0,VALID,104,VALID,0,VALID,22.9731,VALID,125,VALID,0,
2012-04-16, 03:09:04,VALID,1008.11,VALID,0,VALID,104,VALID,0,VALID,22.9926,VALID,125,VALID,0,
2012-04-16, 03:10:04,VALID,1008.08,VALID,0,VALID,104,VALID,0,VALID,22.9731,VALID,125,VALID,0,
2012-04-16, 03:11:04,VALID,1008.08,VALID,0,VALID,104,VALID,0.112112,VALID,22.9714,VALID,125,VALID,0,
2012-04-16, 03:12:04,VALID,1008.08,VALID,0,VALID,104,VALID,0,VALID,22.9926,VALID,125,VALID,0.166797,
2012-04-16, 03:13:05,VALID,1008.08,VALID,0,VALID,104,VALID,0,VALID,22.9714,VALID,125,VALID,0.108984,
2012-04-16, 03:14:05,VALID,1008.06,VALID,0,VALID,104,VALID,0.112112,VALID,22.9909,VALID,125,VALID,0.134766,
2012-04-16, 03:15:04,VALID,1008.07,VALID,0,VALID,104,VALID,0,VALID,22.9731,VALID,125,VALID,0,
2012-04-16, 03:16:05,VALID,1008.06,VALID,0,VALID,104,VALID,0,VALID,22.9926,VALID,125,VALID,0,
2012-04-16, 03:17:05,VALID,1008.09,VALID,0,VALID,104,VALID,0,VALID,22.9731,VALID,125,VALID,0,
2012-04-16, 03:18:05,VALID,1008.08,VALID,0,VALID,104,VALID,0,VALID,22.9342,VALID,125,VALID,0,
2012-04-16, 03:19:05,VALID,1008.09,VALID,0,VALID,104,VALID,0,VALID,22.9147,VALID,125,VALID,0.224609,
2012-04-16, 03:20:05,VALID,1008.08,VALID,0,VALID,104,VALID,0,VALID,22.8757,VALID,125,VALID,0.251953,
2012-04-16, 03:21:05,VALID,1008.07,VALID,0,VALID,104,VALID,0,VALID,22.8562,VALID,125,VALID,0.116406,
2012-04-16, 03:22:05,VALID,1008.07,VALID,0,VALID,104,VALID,0,VALID,22.8368,VALID,125,VALID,0.0671875,
2012-04-16, 03:23:05,VALID,1008.04,VALID,0,VALID,104,VALID,0,VALID,22.8368,VALID,125,VALID,0,
2012-04-16, 03:24:05,VALID,1008.03,VALID,0,VALID,104,VALID,0,VALID,22.7978,VALID,125,VALID,0,
2012-04-16, 03:25:05,VALID,1008.03,VALID,0,VALID,104,VALID,0,VALID,22.7783,VALID,125,VALID,0,
2012-04-16, 03:26:05,VALID,1008.01,VALID,0,VALID,104,VALID,0,VALID,22.7588,VALID,125,VALID,0,
2012-04-16, 03:27:05,VALID,1008,VALID,0,VALID,104,VALID,0,VALID,22.7606,VALID,125,VALID,0,
2012-04-16, 03:28:05,VALID,1007.98,VALID,0,VALID,104,VALID,0.112112,VALID,22.7199,VALID,125,VALID,0,
2012-04-16, 03:29:05,VALID,1007.97,VALID,0,VALID,104,VALID,0,VALID,22.7199,VALID,125,VALID,0,
2012-04-16, 03:30:05,VALID,1007.98,VALID,0,VALID,104,VALID,0,VALID,22.7199,VALID,125,VALID,0,
2012-04-16, 03:31:05,VALID,1007.98,VALID,0,VALID,104,VALID,0,VALID,22.7216,VALID,125,VALID,0,
2012-04-16, 03:32:05,VALID,1007.97,VALID,0,VALID,104,VALID,0.112112,VALID,22.7004,VALID,125,VALID,0,
2012-04-16, 03:33:05,VALID,1007.95,VALID,0,VALID,104,VALID,0,VALID,22.6809,VALID,125,VALID,0,
2012-04-16, 03:34:05,VALID,1007.94,VALID,0,VALID,104,VALID,0,VALID,22.6809,VALID,125,VALID,0,
2012-04-16, 03:35:05,VALID,1007.9,VALID,0,VALID,104,VALID,0.112112,VALID,22.6809,VALID,125,VALID,0,
2012-04-16, 03:36:05,VALID,1007.9,VALID,0,VALID,104,VALID,0,VALID,22.6614,VALID,125,VALID,0,
2012-04-16, 03:37:05,VALID,1007.9,VALID,0,VALID,104,VALID,0,VALID,22.642,VALID,125,VALID,0,
2012-04-16, 03:38:05,VALID,1007.85,VALID,0,VALID,104,VALID,0,VALID,22.6208,VALID,125,VALID,0,
2012-04-16, 03:39:05,VALID,1007.88,VALID,0,VALID,104,VALID,0,VALID,22.6402,VALID,125,VALID,0,
2012-04-16, 03:40:05,VALID,1007.87,VALID,0,VALID,104,VALID,0.112112,VALID,22.6402,VALID,125,VALID,0,
2012-04-16, 03:41:05,VALID,1007.89,VALID,0,VALID,104,VALID,0.112112,VALID,22.6208,VALID,125,VALID,0,
2012-04-16, 03:42:05,VALID,1007.9,VALID,0,VALID,104,VALID,0,VALID,22.6013,VALID,125,VALID,0,
2012-04-16, 03:43:05,VALID,1007.93,VALID,0,VALID,104,VALID,0.112112,VALID,22.6208,VALID,125,VALID,0,
2012-04-16, 03:44:05,VALID,1007.9,VALID,0,VALID,104,VALID,0.112112,VALID,22.642,VALID,125,VALID,0.00078125,
2012-04-16, 03:45:05,VALID,1007.93,VALID,0,VALID,104,VALID,0,VALID,22.6402,VALID,125,VALID,0,
2012-04-16, 03:46:05,VALID,1007.95,VALID,0,VALID,104,VALID,0,VALID,22.6208,VALID,125,VALID,0,
2012-04-16, 03:47:05,VALID,1007.92,VALID,0,VALID,104,VALID,0.112112,VALID,22.6225,VALID,125,VALID,0,
2012-04-16, 03:48:05,VALID,1007.94,VALID,0,VALID,104,VALID,0,VALID,22.603,VALID,125,VALID,0,
2012-04-16, 03:49:05,VALID,1007.94,VALID,0,VALID,104,VALID,0,VALID,22.5818,VALID,125,VALID,0.102734,
2012-04-16, 03:50:05,VALID,1007.95,VALID,0,VALID,104,VALID,0,VALID,22.5623,VALID,125,VALID,0,
2012-04-16, 03:51:05,VALID,1007.97,VALID,0,VALID,104,VALID,0,VALID,22.564,VALID,125,VALID,0,
2012-04-16, 03:52:05,VALID,1007.96,VALID,0,VALID,104,VALID,0,VALID,22.564,VALID,125,VALID,0,
2012-04-16, 03:53:05,VALID,1007.96,VALID,0,VALID,104,VALID,0,VALID,22.564,VALID,125,VALID,0,
2012-04-16, 03:54:05,VALID,1007.92,VALID,0,VALID,104,VALID,0,VALID,22.5658,VALID,125,VALID,0,